Regional Weather Roundup
Issued by NWS

Home | Current Version | Previous Version | Graphics & Text | Print | Product List | Glossary On
Versions: 1 2 3 4 5 6 7 8 9 10 11 12 13 14 15 16 17 18 19 20 21 22 23 24 25 26 27 28 29 30 31 32 33 34 35 36 37 38 39 40 41 42 43 44 45 46 47 48 49 50
000
ASUS45 KBOU 031607
RWRCO

WEATHER ROUNDUP FOR COLORADO
NATIONAL WEATHER SERVICE DENVER/BOULDER CO
1000 AM MDT SUN MAY 03 2015

NOTE: "FAIR" INDICATES FEW OR NO CLOUDS BELOW 12000 FEET WITH NO
SIGNIFICANT WEATHER AND/OR OBSTRUCTIONS TO VISIBILITY.

COZ001>005-013-030-031-031700-
...NORTHWEST COLORADO...

CITY           SKY/WX    TMP DP  RH WIND       PRES   REMARKS
CRAIG          SUNNY     59  40  49 CALM      30.04S
HAYDEN         SUNNY     57  36  44 SE7       30.05S
MEEKER         SUNNY     63  35  35 CALM      30.03F
MOUNT WERNER   NOT AVBL
STEAMBOAT SPGS SUNNY     55  36  50 CALM      30.06S
WALDEN         MOSUNNY   52  36  54 E5        30.12R
$$

COZ006>008-011-031700-
...WEST CENTRAL VALLEYS...

CITY           SKY/WX    TMP DP  RH WIND       PRES   REMARKS
GRAND JUNCTION MOSUNNY   68  36  30 SE13      29.98S
MONTROSE       MOSUNNY   69  30  23 CALM      30.06S
EAGLE          NOT AVBL
RIFLE          SUNNY     63  37  38 VRB5      30.03F
DELTA          MOSUNNY   69  34  28 CALM      30.02F
NUCLA          MOSUNNY   64  32  29 SW9       30.11S
$$

COZ017>023-064>068-031700-
...SOUTHWEST COLORADO...

CITY           SKY/WX    TMP DP  RH WIND       PRES   REMARKS
DURANGO        PTSUNNY   60  34  37 SW7       30.13S
CORTEZ         LGT RAIN  56  43  61 NW10      30.12R
PAGOSA SPRINGS PTSUNNY   58  30  34 S5        30.17S
TELLURIDE      PTSUNNY   54  29  37 SW7       30.23S
WOLF CREEK PAS NOT AVBL
$$

COZ009-010-012-014-032>034-037-058>063-031700-
...CENTRAL COLORADO...

CITY           SKY/WX    TMP DP  RH WIND       PRES   REMARKS
ASPEN          MOSUNNY   57  33  40 N6        30.10F
BUENA VISTA    NOT AVBL
COPPER MTN     MOSUNNY   45  21  39 NW3       30.33S
BERTHOUD PASS  FAIR      32  25  74 W14       30.35R WCI  22
COTTONWOOD PAS SUNNY     52  36  54 E5        30.24S
GUNNISON       MOSUNNY   50  32  50 CALM      30.19F
KREMMLING      SUNNY     52  34  50 CALM      30.13F
LEADVILLE      SUNNY     48  29  47 CALM      30.21S
MONARCH PASS   MOSUNNY   37  25  60 W14G22    30.43S
SALIDA         SUNNY     57  38  48 NE8       30.20F
SUNLIGHT       MOSUNNY   50  27  40 CALM      30.29S
WILKERSON PASS PTSUNNY   41  25  52 W6        30.33R
$$

COZ069>075-031700-
...SAN LUIS VALLEY/SANGRE DE CRISTO MOUNTAINS...

CITY           SKY/WX    TMP DP  RH WIND       PRES   REMARKS
ALAMOSA        SUNNY     55  37  50 VRB3      30.15F
LA VETA PASS   SUNNY     50  30  46 MISG      30.25S
SAGUACHE       MOSUNNY   54  36  50 CALM      30.17S
$$

COZ035-036-038>040-031700-
...NORTHERN COLORADO FRONT RANGE...

CITY           SKY/WX    TMP DP  RH WIND       PRES   REMARKS
DENVER INTL AP PTSUNNY   71  34  25 W6        29.98R
DMNS CITY PARK   N/A     73  33  23 E1        29.98R
AURORA         PTSUNNY   69  33  26 W3        30.00R
FRONT RANGE AP PTSUNNY   72  39  30 W3        29.99S
ERIE MUNI ARPT PTSUNNY   71  33  25 CALM      29.96S
BOULDER MUN AP PTSUNNY   70  41  35 CALM      29.96S
CENTENNIAL     PTSUNNY   68  33  27 CALM      30.00R
BROOMFIELD     PTSUNNY   70  37  30 E3        29.99S
FORT COLLINS   MOSUNNY   68  45  42 NE5       29.97S
LONGMONT       MOSUNNY   75  40  28 E6        29.97R
$$

COZ041-046-047-076>085-087-088-031700-
...PIKES PEAK/PALMER DIVIDE AND SOUTHERN FOOTHILLS...

CITY           SKY/WX    TMP DP  RH WIND       PRES   REMARKS
COLO. SPRINGS  PTSUNNY   72  27  18 NW9       30.02R
A. F. ACADEMY  PTSUNNY   69  25  18 W7G20     30.03R
ELLICOTT       MOSUNNY  N/A N/A N/A NE7       30.01R
FALCON         MOSUNNY   67  26  21 N12       30.07R
FORT CARSON    MOSUNNY   70  37  29 SE6       29.99R
LIMON          MOSUNNY   72  33  24 N14       29.98R
MONUMENT HILL  MOSUNNY   64  30  27 NW9       30.07R
TRINIDAD       MOSUNNY   69  37  30 W7        30.01S
$$

COZ042>045-048>051-090-091-031700-
...NORTHEAST COLORADO...

CITY           SKY/WX    TMP DP  RH WIND       PRES   REMARKS
GREELEY ARPT   MOSUNNY   64  45  48 CALM      29.97R
AKRON          SUNNY     70  40  33 NW13      29.96R
BURLINGTON     SUNNY     75  43  31 N10       29.92R
WRAY           SUNNY     77  39  25 NW18G28   29.88R
STERLING       SUNNY     70  46  43 N9        29.91R
HOLYOKE        NOT AVBL
FORT MORGAN    SUNNY     69  -8   4 NW5       29.96R
$$

COZ086-089-092>099-031700-
...SOUTHEAST COLORADO...

CITY           SKY/WX    TMP DP  RH WIND       PRES   REMARKS
PUEBLO         MOSUNNY   74  36  25 W14       29.93F
LA JUNTA       MOSUNNY   70  43  37 MISG      29.93S
LAMAR          PTSUNNY   69  48  47 W7        29.90R
SPRINGFIELD      N/A     74  41  30 NW14      29.93S
$$


USA.gov is the U.S. government's official web portal to all federal, state and local government web resources and services.